Vertical_Velocity
3 -0 1 -1 -2 1 9 -2 -4 6 1 -2 -0 -1 -1 2 1 -0 -0 -2 -1 -0 0 -0 -1 -1 -0 1 -0 -1 0 -1 -1 -1 -5 2 0 1 -1 2 -2 -1 2 -10
-0 1 -3 3 -1 3 -1 1 -2 9 1 -1 0 -0 1 -0 0 0 -0 0 -1 -0 -0 -5 -1 0 3 -0 -1 -0 0 -1 -2 -2 -6 -5 -1 1 0 -1 2 -3 5 -8
-1 -3 -3 5 -1 -1 -1 6 -4 4 4 2 -2 -1 1 1 1 -0 -0 0 -3 -2 -1 -1 0 0 1 -0 0 0 -3 -0 -3 -5 -6 -0 -1 -1 -1 3 -0 -1 -3 -6
0 2 -3 2 -3 1 4 -0 -2 -1 -2 -1 0 -1 -1 0 0 -1 -1 -1 -1 -1 -1 -0 -0 -0 -1 -2 2 -1 -4 -1 1 -1 -0 1 0 0 -2 4 -6 5 -12 2
2 0 -1 5 0 -3 0 -0 -0 0 0 0 -2 -1 1 -2 4 -3 1 -4 2 -1 -2 -1 -0 -1 -1 -1 -2 -0 -1 -0 0 -2 -0 1 0 -1 0 -0 -2 2 2 -7
4 -1 1 3 -0 1 3 -2 -1 3 1 0 -3 -1 1 2 -2 2 -0 -2 -2 -1 -2 -3 -6 -5 -2 -4 -4 -0 -1 -2 -1 -3 0 -1 -1 -2 -1 -3 0 -0 3 -9
1 1 3 2 -1 1 -5 -2 0 -3 -1 -2 -1 -1 -4 -0 1 -4 2 -2 -4 0 3 1 1 2 3 3 -2 -2 -1 -0 -1 -1 -2 0 -5 1 4 3 2 -0 0 1
-1 -1 0 4 -4 -2 3 -1 -1 -1 -0 1 2 0 -1 0 3 -2 -3 2 3 -1 -3 -3 -3 -4 -3 0 -0 2 -1 -1 -1 -3 -0 -9 -7 0 -0 5 3 2 1 2
1 4 3 -3 1 -4 2 1 -1 -0 -9 -3 2 -1 -0 -1 0 -3 1 0 1 -1 -2 -2 -1 0 1 -2 -8 -0 1 -0 -3 2 0 -1 -0 -2 2 2 3 2 1 1
-2 -1 -1 2 -1 1 2 -2 -1 -2 -8 -0 1 -2 -3 0 -0 -2 -0 -1 -3 0 -0 -1 -2 -1 2 2 -0 -0 1 2 -2 -0 -0 -5 3 1 1 5 10 2 0 3
-0 -0 2 -2 -2 -0 -0 -1 -1 -4 -3 4 3 -1 -5 -2 -1 -3 -1 -8 -8 -3 -4 -3 -1 -1 -2 0 -2 3 1 3 -0 2 3 1 1 -8 -2 6 2 1 0 -1
-2 1 -5 2 2 -1 -2 -5 -1 -2 -5 -2 -0 -1 -0 0 -2 -8 0 -2 -0 -1 -4 -1 -1 -1 -1 -1 -1 -2 1 4 3 3 4 3 1 4 5 4 0 4 -2 -0
2 0 2 3 0 -5 -3 -3 2 1 -7 2 -0 1 0 -0 1 -1 -10 -0 1 -1 0 -4 -1 -2 -2 -1 -0 -0 -2 -0 -1 1 3 1 3 1 0 1 1 1 -2 1
2 -3 3 1 -2 -4 -0 -2 1 -2 -2 -7 1 1 4 3 1 -3 -3 -7 -2 -2 0 -1 -1 -1 -1 -1 0 -2 3 -2 1 2 2 2 -1 3 1 0 -0 -2 2 -1
2 3 1 1 -2 -3 -3 -0 -2 -2 -2 -5 -0 3 3 1 -0 -1 -3 -3 -2 -1 -1 -1 -2 -0 -2 0 -3 -0 1 2 0 0 1 -2 3 2 6 -2 -1 -1 -2 -0
3 -2 -2 -2 1 -5 -1 -4 -4 -1 -2 -5 -3 1 1 1 3 2 1 0 -2 -1 -1 -0 -1 -0 -0 -1 -0 0 1 -2 -0 -1 1 -3 -1 0 0 -4 -2 -2 -3 0
3 -0 -2 -1 -1 -1 -3 -1 1 -1 -2 -4 -2 -2 2 4 3 1 1 1 -1 -1 -0 -1 -0 -1 0 -1 -0 1 2 1 -2 3 -3 2 4 -0 3 1 1 -0 -1 -1
1 -1 -0 -1 -1 -2 -4 -3 -2 -1 -3 -3 -3 -3 -1 5 -1 -0 1 -0 0 0 0 1 -0 -0 0 0 1 2 -1 -0 -2 -0 2 -1 -2 -2 0 2 5 2 0 1
1 -1 -4 -3 -1 -4 -4 -3 1 -2 -4 -2 -1 -3 -5 3 1 1 0 1 -2 1 -1 -1 -2 -1 0 -2 -3 -0 -3 1 -0 2 1 1 4 4 2 1 -0 -2 -2 -1
-1 -2 -1 -2 -2 1 1 0 -5 -6 -4 -4 -1 1 -3 0 1 0 -1 0 -1 -1 -7 1 -2 0 1 4 1 1 -1 -3 1 -3 1 1 -0 -1 -0 -0 -0 0 -4 -1
-1 -1 -2 2 -1 -3 -4 -2 -2 -1 1 -1 -3 -1 -1 -1 -5 -2 -1 -1 -1 1 -7 -5 0 1 1 2 -0 1 0 -2 -0 1 1 1 2 -2 -0 1 2 0 -3 -1
-2 -5 -4 -1 -2 -1 -1 -0 1 1 -3 1 -2 -3 -4 1 2 -2 -0 -0 2 -1 -0 0 0 -2 1 1 1 -2 -0 0 -1 1 1 -0 -1 0 -0 -2 -3 -1 0 1
-2 -5 -3 -2 2 2 -2 0 -1 -1 -1 -0 0 -2 -2 1 2 -1 -1 3 -3 1 -1 -2 -3 0 2 -0 -2 -1 -1 -0 -0 -1 -1 -0 0 -1 -1 -0 -0 -0 -2 -2
-4 -2 1 -3 0 -1 -2 -2 -2 1 1 1 2 -1 -2 0 -3 -0 1 -6 1 -1 0 -4 -1 -1 -2 -0 0 -0 -2 -1 -1 -1 -2 -1 -1 -1 -1 -1 -2 -0 1 1
-2 1 -2 -0 -3 1 -0 0 1 1 0 1 -1 -2 0 -1 -3 -0 0 0 -1 -1 -2 -2 -1 -3 -2 -2 -1 -1 -1 -1 -1 -1 -1 -1 -0 0 -1 -1 0 -0 -1 -1
-2 -1 -0 1 1 1 -1 -0 1 -0 1 -1 -0 -1 -2 -1 -1 2 -2 1 -2 -4 -1 -1 -2 -1 -1 -2 -1 0 1 0 -0 -0 1 1 1 1 1 -0 -1 0 0 0
-2 -0 -0 0 3 1 1 -2 -1 -1 -0 -1 -0 1 -8 -2 1 0 -1 -2 -4 -2 -1 -1 -0 -3 -2 0 0 -1 -1 -2 -1 -1 0 0 -0 0 0 1 1 -0 -1 -1
Height
1403 1405 1405 1408 1411 1414 1418 1417 1422 1427 1428 1433 1432 1433 1424 1419 1420 1422 1421 1421 1424 1426 1427 1431 1432 1439 1440 1441 1441 1444 1444 1448 1451 1445 1440 1441 1442 1446 1449 1453 1446 1446 1440 1432
1404 1405 1406 1409 1412 1414 1416 1417 1423 1427 1428 1428 1430 1424 1424 1426 1424 1425 1424 1425 1426 1428 1432 1437 1436 1438 1444 1441 1441 1445 1445 1453 1458 1448 1448 1445 1446 1448 1449 1452 1453 1444 1439 1424
1404 1404 1407 1409 1411 1413 1416 1416 1421 1426 1428 1423 1423 1423 1424 1425 1425 1426 1427 1430 1429 1431 1435 1436 1439 1443 1446 1444 1443 1444 1445 1452 1451 1460 1452 1453 1454 1452 1453 1455 1465 1451 1442 1431
1404 1405 1407 1408 1410 1412 1414 1413 1415 1416 1424 1420 1419 1420 1422 1424 1428 1429 1429 1432 1433 1434 1440 1441 1446 1447 1448 1447 1446 1446 1450 1454 1452 1450 1450 1453 1454 1451 1448 1447 1443 1443 1434 1428
1403 1404 1406 1407 1410 1412 1413 1412 1412 1413 1415 1417 1418 1422 1424 1424 1427 1429 1432 1434 1436 1436 1442 1443 1447 1449 1449 1450 1448 1450 1454 1458 1455 1452 1450 1449 1446 1437 1434 1433 1430 1428 1424 1418
1403 1404 1406 1407 1409 1411 1410 1411 1413 1414 1418 1418 1420 1423 1423 1426 1428 1434 1433 1435 1437 1440 1442 1442 1444 1444 1445 1446 1448 1452 1455 1462 1464 1453 1447 1447 1443 1433 1430 1417 1416 1417 1419 1411
1403 1404 1405 1407 1408 1410 1412 1412 1413 1413 1423 1419 1420 1421 1423 1427 1430 1434 1437 1436 1438 1441 1439 1439 1439 1439 1440 1442 1442 1446 1455 1459 1463 1459 1451 1457 1427 1433 1429 1419 1419 1422 1415 1419
1402 1404 1406 1406 1410 1412 1413 1412 1413 1413 1423 1420 1424 1425 1428 1431 1434 1437 1438 1439 1440 1440 1439 1442 1441 1441 1437 1438 1440 1442 1445 1451 1462 1464 1456 1433 1424 1432 1433 1429 1426 1426 1422 1423
1402 1404 1406 1409 1411 1412 1413 1412 1413 1414 1420 1429 1428 1428 1430 1435 1438 1440 1441 1441 1440 1441 1444 1449 1450 1453 1444 1438 1438 1436 1439 1445 1450 1449 1460 1449 1439 1435 1432 1430 1422 1429 1427 1425
1403 1406 1408 1410 1412 1413 1414 1414 1415 1417 1422 1429 1429 1430 1433 1436 1439 1443 1443 1444 1443 1443 1454 1464 1466 1455 1448 1446 1454 1439 1444 1449 1447 1448 1447 1436 1442 1435 1428 1421 1436 1434 1431 1431
1405 1407 1410 1411 1413 1414 1414 1416 1417 1419 1424 1429 1430 1431 1433 1437 1439 1446 1445 1448 1447 1448 1455 1458 1467 1468 1452 1454 1451 1442 1440 1442 1438 1438 1437 1434 1443 1436 1436 1440 1439 1439 1438 1439
1406 1409 1411 1413 1414 1414 1415 1417 1420 1421 1424 1431 1433 1435 1438 1439 1440 1441 1443 1447 1447 1448 1456 1459 1460 1459 1457 1454 1449 1445 1444 1449 1445 1448 1451 1453 1452 1451 1447 1442 1443 1442 1440 1443
1407 1410 1412 1414 1415 1416 1417 1419 1421 1423 1428 1433 1436 1438 1439 1440 1440 1441 1443 1447 1447 1449 1450 1453 1457 1459 1455 1459 1453 1452 1448 1448 1446 1450 1456 1456 1455 1453 1452 1448 1447 1446 1447 1448
1409 1412 1413 1415 1417 1419 1420 1421 1423 1425 1429 1434 1440 1440 1441 1442 1442 1443 1444 1445 1448 1450 1451 1452 1456 1457 1452 1454 1451 1455 1454 1452 1451 1454 1456 1456 1457 1456 1454 1453 1452 1453 1453 1452
1411 1413 1414 1417 1420 1421 1423 1424 1425 1427 1431 1434 1438 1440 1442 1443 1445 1446 1447 1448 1449 1450 1451 1453 1456 1452 1452 1451 1454 1456 1455 1455 1454 1458 1458 1457 1459 1458 1457 1456 1457 1457 1456 1456
1412 1415 1417 1419 1422 1424 1425 1427 1429 1429 1429 1432 1440 1441 1442 1444 1446 1447 1448 1449 1450 1451 1452 1452 1452 1450 1452 1456 1459 1455 1456 1456 1456 1458 1458 1459 1460 1460 1460 1460 1461 1461 1460 1459
1415 1417 1420 1422 1424 1425 1427 1429 1430 1430 1431 1433 1440 1441 1443 1444 1447 1448 1449 1450 1450 1451 1451 1452 1451 1450 1450 1453 1455 1454 1455 1456 1456 1458 1459 1461 1461 1463 1464 1463 1464 1464 1463 1463
1417 1419 1422 1424 1426 1428 1430 1430 1431 1431 1432 1434 1441 1443 1442 1444 1445 1447 1448 1449 1450 1450 1450 1451 1450 1448 1448 1452 1452 1453 1455 1456 1456 1458 1459 1460 1461 1463 1464 1465 1464 1463 1463 1464
1419 1422 1424 1426 1429 1430 1432 1432 1433 1433 1436 1436 1439 1444 1450 1443 1444 1446 1448 1448 1451 1451 1450 1448 1449 1449 1447 1449 1450 1452 1455 1456 1457 1459 1460 1461 1462 1462 1463 1464 1464 1463 1464 1464
1421 1425 1426 1428 1431 1432 1434 1435 1434 1435 1436 1438 1439 1440 1442 1443 1443 1445 1448 1448 1449 1452 1446 1445 1448 1450 1449 1449 1450 1452 1454 1456 1458 1458 1461 1462 1462 1463 1464 1464 1464 1465 1465 1466
1424 1425 1428 1431 1433 1435 1436 1437 1439 1440 1439 1439 1439 1440 1440 1442 1445 1446 1446 1446 1445 1445 1442 1444 1445 1446 1449 1450 1451 1453 1453 1455 1457 1458 1460 1461 1462 1463 1464 1464 1465 1465 1466 1467
1425 1425 1430 1433 1435 1437 1438 1439 1440 1439 1436 1436 1437 1437 1439 1440 1441 1442 1444 1442 1443 1435 1438 1439 1446 1449 1448 1449 1450 1453 1455 1455 1456 1457 1458 1460 1462 1463 1464 1464 1466 1467 1467 1468
1426 1428 1431 1433 1436 1437 1439 1441 1437 1441 1432 1433 1434 1437 1438 1440 1441 1441 1443 1437 1438 1435 1436 1443 1446 1446 1449 1450 1452 1454 1455 1456 1456 1457 1459 1461 1462 1463 1464 1465 1466 1467 1468 1469
1428 1429 1432 1434 1436 1436 1434 1433 1432 1431 1431 1431 1433 1435 1436 1438 1440 1442 1441 1442 1438 1442 1442 1440 1444 1445 1448 1450 1453 1454 1455 1456 1458 1459 1460 1462 1463 1464 1465 1467 1468 1469 1470 1471
1428 1429 1432 1432 1430 1430 1430 1431 1432 1432 1433 1433 1434 1436 1438 1440 1443 1441 1442 1439 1437 1433 1436 1441 1441 1444 1447 1450 1453 1454 1455 1457 1458 1460 1462 1463 1465 1467 1468 1469 1470 1471 1472 1472
1429 1429 1428 1428 1430 1431 1432 1432 1433 1434 1434 1435 1436 1438 1442 1441 1440 1439 1437 1435 1435 1436 1437 1437 1440 1444 1447 1450 1453 1455 1456 1457 1459 1461 1464 1466 1468 1469 1470 1471 1472 1473 1473 1473
1429 1429 1429 1429 1429 1430 1431 1433 1434 1435 1436 1437 1438 1437 1438 1438 1438 1438 1436 1435 1439 1435 1436 1438 1441 1444 1447 1450 1452 1454 1456 1459 1461 1464 1466 1468 1470 1471 1472 1473 1474 1474 1474 1475